VK4NB-13 Weather Reports


time (UTC)temp
F
wind
direction
speed
knots
gust
knots
rain 1hr
in
rain 24hr
in
rain mn
in
humidity
%
barometer
mb
20260505140523 69 0 0.0 0.0 0.00 0.06 0.00 98 1015.7
20260505125002 70 0 0.0 0.0 0.00 0.06 0.06 97 1016.6
20260505124503 70 0 0.0 0.0 0.00 0.06 0.06 97 1016.7
20260505124002 71 0 0.0 0.0 0.00 0.06 0.06 97 1016.5
20260505123502 70 0 0.0 0.0 0.00 0.06 0.06 97 1016.5
20260505123024 70 0 0.0 0.0 0.00 0.06 0.06 96 1016.7
20260505122523 70 0 0.0 0.0 0.00 0.06 0.06 96 1016.6
20260505122002 71 0 0.0 0.0 0.00 0.06 0.06 96 1016.4
20260505121502 71 0 0.0 0.0 0.00 0.06 0.06 95 1016.5
20260505121023 71 0 0.0 0.0 0.00 0.06 0.06 96 1016.6
20260505120502 71 0 0.0 0.0 0.00 0.06 0.06 96 1016.6
20260505120023 71 0 0.0 0.0 0.00 0.06 0.06 95 1016.4
20260505115502 71 0 0.0 0.0 0.00 0.06 0.06 95 1016.6
20260505115002 71 0 0.0 0.0 0.00 0.06 0.06 96 1016.7
20260505114502 71 0 0.0 0.0 0.00 0.06 0.06 95 1016.7
20260505114023 72 0 0.0 0.0 0.00 0.06 0.06 94 1016.6
20260505113502 72 0 0.0 0.0 0.00 0.06 0.06 94 1016.5
20260505113003 72 0 0.0 0.0 0.00 0.06 0.06 94 1016.5
20260505112502 72 0 0.0 0.0 0.00 0.06 0.06 94 1016.7
20260505112023 72 0 0.0 0.0 0.00 0.06 0.06 94 1016.7
20260505111523 72 0 0.0 0.0 0.00 0.06 0.06 94 1016.7
20260505111002 72 0 0.0 0.0 0.00 0.06 0.06 93 1016.8
20260505110502 72 0 0.0 0.0 0.00 0.06 0.06 93 1016.5
20260505102002 72 0 0.0 0.0 0.00 0.06 0.06 92 1016.8
20260505101503 72 0 0.0 0.0 0.00 0.06 0.06 91 1016.8
20260505101002 72 0 0.0 0.0 0.00 0.06 0.06 91 1016.5
20260505100502 72 0 0.0 0.0 0.00 0.06 0.06 91 1016.5
20260505100002 72 0 0.0 0.0 0.00 0.06 0.06 90 1016.3
20260505095502 72 0 0.0 0.0 0.00 0.06 0.06 90 1016.3
20260505095002 72 0 0.0 0.0 0.00 0.06 0.06 89 1016.4
20260505094502 73 0 0.0 0.0 0.00 0.06 0.06 89 1016.4
20260505094003 73 0 0.0 0.0 0.00 0.06 0.06 89 1016.3
20260505093503 73 0 0.0 0.0 0.00 0.06 0.06 88 1016.3
20260505093003 73 0 0.0 0.0 0.00 0.06 0.06 88 1016.2
20260505092502 73 0 0.0 0.0 0.00 0.06 0.06 88 1016.1
20260505092002 73 0 0.0 0.0 0.00 0.06 0.06 88 1016.1
20260505091502 73 0 0.0 0.0 0.00 0.08 0.06 88 1016.1
20260505091002 72 0 0.0 0.0 0.00 0.09 0.06 88 1016.1
20260505090502 72 0 0.0 0.0 0.00 0.12 0.06 88 1015.8
20260505090002 73 0 0.0 0.0 0.02 0.13 0.06 87 1015.8
20260505085523 73 0 0.0 0.0 0.04 0.13 0.06 87 1015.9
20260505085003 73 0 0.0 0.0 0.05 0.13 0.06 87 1015.5
20260505084502 73 0 0.0 0.0 0.05 0.14 0.06 86 1015.8
20260505084003 73 0 0.0 0.0 0.05 0.17 0.06 86 1015.7
20260505083503 74 0 0.0 0.0 0.05 0.17 0.06 85 1015.4
20260505083003 74 0 0.0 0.0 0.05 0.18 0.06 85 1015.6
20260505082503 74 0 0.0 0.0 0.05 0.18 0.06 84 1015.4
20260505082003 74 0 0.0 0.0 0.05 0.18 0.06 82 1015.4
20260505081502 74 0 0.0 0.0 0.05 0.18 0.06 81 1015.3
20260505081003 74 0 0.0 0.0 0.05 0.18 0.06 81 1015.4
20260505080523 74 0 0.0 0.0 0.05 0.18 0.06 80 1015.2
20260505080003 74 0 0.0 0.0 0.02 0.18 0.04 81 1015.2
20260505075503 74 0 0.0 0.0 0.01 0.18 0.02 80 1015.3
20260505075003 74 0 0.0 0.0 0.00 0.18 0.01 81 1014.9
20260505074524 75 0 0.0 0.0 0.00 0.18 0.01 83 1014.8
20260505074003 75 0 0.0 0.0 0.00 0.18 0.01 80 1014.8
20260505073502 76 0 0.0 0.0 0.00 0.18 0.01 77 1014.8
20260505073003 76 0 0.0 0.0 0.00 0.18 0.01 76 1014.6
20260505072503 76 0 0.0 0.0 0.00 0.18 0.01 76 1014.6
20260505072002 76 0 0.0 0.0 0.00 0.18 0.01 75 1014.5
20260505071503 76 0 0.0 0.0 0.00 0.18 0.01 75 1014.5
20260505071003 76 0 0.0 0.0 0.00 0.18 0.01 76 1014.6
20260505070503 76 0 0.0 0.0 0.00 0.18 0.01 73 1014.4
20260505070024 77 0 0.0 0.0 0.00 0.18 0.01 73 1014.5
20260505065503 76 0 0.0 0.0 0.00 0.18 0.01 73 1014.4
20260505065003 77 0 0.0 0.0 0.00 0.18 0.01 71 1014.1
20260505064503 78 0 0.0 0.0 0.00 0.18 0.01 70 1014.3
20260505064003 80 0 0.0 0.0 0.00 0.18 0.01 64 1014.3
20260505063525 80 0 0.0 0.0 0.00 0.18 0.01 64 1014.4
20260505063024 80 0 0.0 0.0 0.00 0.18 0.01 64 1014.2
20260505062524 80 0 0.0 0.0 0.00 0.18 0.01 64 1014.2
20260505062003 81 0 0.0 0.0 0.00 0.18 0.01 63 1014.2
20260505061503 81 0 0.0 0.0 0.00 0.18 0.01 63 1014.1
20260505061003 81 67 0.0 1.7 0.00 0.18 0.01 62 1014.1
20260505060503 80 67 0.0 1.7 0.00 0.18 0.01 62 1014.1
20260505060003 80 0 0.0 0.0 0.00 0.18 0.01 63 1013.9
20260505055503 80 112 0.0 1.7 0.00 0.18 0.01 64 1014.0
20260505055003 80 112 0.0 1.7 0.00 0.18 0.01 63 1014.1
20260505054503 79 112 0.0 1.7 0.00 0.18 0.01 64 1014.1
20260505054003 80 0 0.0 0.0 0.00 0.18 0.01 65 1013.9
20260505053504 80 0 0.0 0.0 0.00 0.18 0.01 65 1014.0
20260505053003 80 90 0.0 1.7 0.00 0.18 0.01 64 1013.8
20260505052503 82 90 0.0 1.7 0.00 0.18 0.01 64 1013.9
20260505052003 81 77 0.0 1.7 0.00 0.18 0.01 62 1013.7
20260505051524 81 80 0.0 1.7 0.00 0.18 0.01 62 1013.8
20260505051024 82 90 0.0 1.7 0.00 0.18 0.01 60 1013.8
20260505050503 82 90 0.0 1.7 0.00 0.18 0.01 63 1013.8
20260505041503 82 0 0.0 0.0 0.00 0.18 0.01 62 1014.0
20260505041003 83 0 0.0 0.0 0.00 0.18 0.01 64 1014.1
20260505040503 82 0 0.0 0.0 0.00 0.18 0.01 63 1013.8
20260505040003 82 0 0.0 0.0 0.00 0.18 0.01 62 1013.9
20260505035503 83 0 0.0 0.0 0.00 0.18 0.01 62 1014.1
20260505035003 82 0 0.0 0.0 0.00 0.18 0.01 63 1013.8
20260505034503 83 0 0.0 0.0 0.00 0.18 0.01 62 1014.0
20260505034003 84 0 0.0 0.0 0.00 0.18 0.01 60 1014.0
20260505033504 83 0 0.0 0.0 0.00 0.18 0.01 58 1013.9
20260505033003 85 0 0.0 0.0 0.00 0.18 0.01 56 1013.9
20260505032524 83 168 0.0 1.7 0.00 0.18 0.01 58 1014.0
20260505032003 83 168 0.0 1.7 0.00 0.18 0.01 59 1014.0
20260505031503 83 0 0.0 0.0 0.00 0.18 0.01 61 1014.1
20260505031003 82 135 0.0 1.7 0.00 0.18 0.01 59 1014.2
20260505030503 83 135 0.0 1.7 0.00 0.18 0.01 59 1014.4
20260505030024 84 0 0.0 0.0 0.00 0.18 0.01 63 1014.5
20260505025503 82 0 0.0 0.0 0.00 0.18 0.01 62 1014.5
20260505025024 82 0 0.0 0.0 0.00 0.18 0.01 64 1014.6
20260505024503 82 0 0.0 0.0 0.00 0.18 0.01 64 1014.8
20260505024003 81 0 0.0 0.0 0.00 0.18 0.01 66 1014.6
20260505023504 83 0 0.0 0.0 0.00 0.18 0.01 63 1014.8
20260505023003 82 0 0.0 0.0 0.00 0.18 0.01 67 1015.0
20260505022503 82 90 0.0 1.7 0.00 0.18 0.01 68 1015.0
20260505022003 83 90 0.0 1.7 0.00 0.18 0.01 69 1014.9
20260505021524 81 0 0.0 0.0 0.00 0.18 0.01 69 1015.0
20260505021003 82 0 0.0 0.0 0.00 0.18 0.01 67 1015.3
20260505020524 81 0 0.0 0.0 0.00 0.18 0.01 69 1015.3
20260505020003 80 0 0.0 0.0 0.00 0.18 0.01 69 1015.3
20260505015503 80 0 0.0 0.0 0.00 0.18 0.01 69 1015.4
20260505015003 80 0 0.0 0.0 0.00 0.18 0.01 71 1015.2
20260505014524 80 0 0.0 0.0 0.00 0.18 0.01 69 1015.5
20260505014003 82 0 0.0 0.0 0.00 0.18 0.01 72 1015.6
20260505013504 81 0 0.0 0.0 0.00 0.18 0.01 70 1015.5
20260505013003 80 0 0.0 0.0 0.00 0.18 0.01 71 1015.7
20260505012503 79 0 0.0 0.0 0.00 0.18 0.01 74 1015.6
20260505012003 81 0 0.0 0.0 0.00 0.18 0.01 71 1015.8
20260505011524 81 0 0.0 0.0 0.00 0.18 0.01 73 1015.7
20260505011003 81 0 0.0 0.0 0.00 0.18 0.01 73 1015.9
20260505010503 81 0 0.0 0.0 0.00 0.18 0.01 72 1016.0
20260505010022 81 0 0.0 0.0 0.00 0.18 0.01 75 1016.4
20260505005500 80 0 0.0 0.0 0.00 0.18 0.01 75 1016.3
20260505005000 80 0 0.0 0.0 0.00 0.18 0.01 73 1016.4
20260505004522 80 0 0.0 0.0 0.00 0.18 0.01 73 1016.4
20260505004000 78 0 0.0 0.0 0.00 0.18 0.01 77 1016.0
20260505003502 78 0 0.0 0.0 0.00 0.18 0.01 78 1016.1
20260505003001 78 0 0.0 0.0 0.00 0.18 0.01 76 1016.3
20260505002501 79 0 0.0 0.0 0.00 0.18 0.01 78 1016.7
20260505002021 79 0 0.0 0.0 0.00 0.18 0.01 77 1016.6
20260505001501 77 0 0.0 0.0 0.00 0.18 0.01 79 1016.5
20260505001000 76 108 0.0 1.7 0.00 0.18 0.01 84 1016.6
20260505000522 77 109 0.0 1.7 0.00 0.18 0.01 79 1016.5
20260505000000 79 112 0.0 1.7 0.00 0.18 0.01 77 1016.4
20260504235500 79 0 0.0 0.0 0.00 0.18 0.01 81 1016.8
20260504235021 79 0 0.0 0.0 0.00 0.18 0.01 79 1016.8
20260504234501 78 0 0.0 0.0 0.00 0.18 0.01 81 1016.9
20260504234000 77 0 0.0 0.0 0.00 0.18 0.01 82 1016.9
20260504233501 77 0 0.0 0.0 0.00 0.18 0.01 82 1016.9
20260504233000 76 0 0.0 0.0 0.00 0.18 0.01 84 1017.0
20260504232500 76 0 0.0 0.0 0.00 0.18 0.01 85 1016.9
20260504232022 76 135 0.0 1.7 0.00 0.18 0.01 85 1016.8
20260504231501 76 135 0.0 1.7 0.00 0.18 0.01 85 1017.1
20260504231001 76 0 0.0 0.0 0.00 0.18 0.01 86 1017.2
20260504230501 75 0 0.0 0.0 0.00 0.18 0.01 87 1016.9
20260504230022 74 0 0.0 0.0 0.00 0.18 0.01 86 1017.1
20260504225501 75 0 0.0 0.0 0.00 0.18 0.01 87 1017.1
20260504225000 74 0 0.0 0.0 0.00 0.18 0.01 87 1017.0
20260504224501 74 0 0.0 0.0 0.00 0.18 0.01 87 1017.0
20260504224001 74 0 0.0 0.0 0.00 0.18 0.01 88 1017.0
20260504223522 74 0 0.0 0.0 0.00 0.18 0.01 90 1017.1
20260504223000 74 0 0.0 0.0 0.00 0.18 0.01 91 1017.0
20260504222501 73 0 0.0 0.0 0.00 0.18 0.01 91 1017.1
20260504222001 73 0 0.0 0.0 0.00 0.18 0.01 91 1017.1
20260504221501 74 0 0.0 0.0 0.00 0.18 0.01 92 1016.8
20260504221001 72 0 0.0 0.0 0.00 0.18 0.01 98 1017.2
20260504220501 71 0 0.0 0.0 0.00 0.18 0.01 99 1017.0
20260504220022 71 0 0.0 0.0 0.00 0.18 0.01 99 1017.0
20260504215522 70 0 0.0 0.0 0.00 0.18 0.01 99 1017.0
20260504215001 69 0 0.0 0.0 0.00 0.18 0.01 99 1017.0
20260504214522 69 0 0.0 0.0 0.00 0.18 0.01 99 1017.1
20260504214001 68 0 0.0 0.0 0.00 0.18 0.01 99 1017.0
20260504213502 68 0 0.0 0.0 0.00 0.18 0.01 99 1016.9
20260504213001 68 0 0.0 0.0 0.00 0.18 0.01 99 1017.0
20260504212522 69 0 0.0 0.0 0.00 0.18 0.01 99 1017.1
20260504212022 69 0 0.0 0.0 0.00 0.18 0.01 99 1016.8
20260504211522 67 0 0.0 0.0 0.00 0.18 0.01 99 1016.6
20260504211022 67 0 0.0 0.0 0.00 0.18 0.01 99 1016.7
20260504210522 67 0 0.0 0.0 0.00 0.18 0.01 99 1016.6
20260504210001 67 0 0.0 0.0 0.00 0.18 0.01 99 1016.6
20260504205501 67 0 0.0 0.0 0.00 0.18 0.01 99 1016.5
20260504205001 67 0 0.0 0.0 0.00 0.18 0.01 99 1016.2
20260504204501 66 0 0.0 0.0 0.00 0.18 0.01 99 1016.5
20260504204001 65 0 0.0 0.0 0.00 0.18 0.01 99 1016.2
20260504203523 64 0 0.0 0.0 0.00 0.18 0.01 99 1015.9
20260504203001 64 0 0.0 0.0 0.00 0.18 0.01 99 1016.0
20260504202501 64 0 0.0 0.0 0.00 0.18 0.01 99 1016.1
20260504202001 64 0 0.0 0.0 0.00 0.18 0.01 99 1015.9
20260504201522 64 0 0.0 0.0 0.00 0.18 0.01 99 1015.7
20260504201001 64 0 0.0 0.0 0.00 0.18 0.01 99 1015.8
20260504200501 64 0 0.0 0.0 0.00 0.18 0.01 99 1015.9
20260504200001 64 0 0.0 0.0 0.00 0.18 0.01 99 1015.8
20260504195501 63 0 0.0 0.0 0.00 0.18 0.01 99 1015.8
20260504195001 63 0 0.0 0.0 0.00 0.18 0.01 99 1015.7
20260504194501 63 0 0.0 0.0 0.00 0.18 0.01 99 1015.7
20260504194001 64 0 0.0 0.0 0.00 0.18 0.01 99 1015.7
20260504193502 64 0 0.0 0.0 0.00 0.18 0.01 99 1015.8
20260504193001 65 0 0.0 0.0 0.00 0.18 0.01 99 1015.7
20260504192501 66 0 0.0 0.0 0.00 0.18 0.01 99 1015.6
20260504192001 66 0 0.0 0.0 0.00 0.18 0.01 99 1015.6
20260504191501 66 0 0.0 0.0 0.00 0.18 0.01 99 1015.6
20260504191001 65 0 0.0 0.0 0.00 0.18 0.01 99 1015.6
20260504190501 65 0 0.0 0.0 0.00 0.18 0.01 99 1015.6
20260504190001 65 0 0.0 0.0 0.00 0.18 0.01 99 1015.4
20260504185501 65 0 0.0 0.0 0.00 0.18 0.01 99 1015.3
20260504185001 65 0 0.0 0.0 0.00 0.18 0.01 99 1015.1
20260504184501 65 0 0.0 0.0 0.00 0.18 0.01 99 1015.3
20260504184002 64 0 0.0 0.0 0.00 0.18 0.01 99 1015.2
20260504183502 64 0 0.0 0.0 0.00 0.18 0.01 99 1015.0
20260504183022 64 0 0.0 0.0 0.00 0.18 0.01 99 1014.8
20260504182501 64 0 0.0 0.0 0.00 0.18 0.01 99 1014.9
20260504182022 64 0 0.0 0.0 0.00 0.18 0.01 99 1015.0
20260504181501 64 0 0.0 0.0 0.00 0.18 0.01 99 1015.1
20260504181001 65 0 0.0 0.0 0.00 0.18 0.01 99 1015.1
20260504180522 65 0 0.0 0.0 0.00 0.18 0.01 99 1015.2
20260504180001 65 0 0.0 0.0 0.00 0.18 0.01 99 1014.9
20260504175501 65 0 0.0 0.0 0.01 0.18 0.01 99 1015.1
20260504175001 65 0 0.0 0.0 0.01 0.18 0.01 99 1015.1
20260504174501 64 0 0.0 0.0 0.01 0.18 0.01 99 1015.1
20260504174002 65 0 0.0 0.0 0.01 0.18 0.01 99 1015.2
20260504173523 65 0 0.0 0.0 0.01 0.18 0.01 99 1015.0
20260504173002 64 0 0.0 0.0 0.01 0.18 0.01 99 1015.2
20260504172501 64 0 0.0 0.0 0.01 0.18 0.01 99 1015.2
20260504172002 64 0 0.0 0.0 0.01 0.18 0.01 99 1015.2
20260504171501 65 0 0.0 0.0 0.01 0.18 0.01 99 1015.2
20260504171023 64 0 0.0 0.0 0.01 0.18 0.01 99 1015.3
20260504170523 64 0 0.0 0.0 0.01 0.18 0.01 99 1015.2
20260504151002 65 0 0.0 0.0 0.00 0.19 0.00 99 1016.0
20260504150501 65 0 0.0 0.0 0.00 0.19 0.00 99 1016.0